GFSFLT2_prec_precacc_195.txt.gz
Total_Precipitation_Accumulation
6.12 3.89 3.36 3.59 2.44 2.37 3.32 3.33 2.81 1.83 1.41 1.20 1.34 1.00 0.86 0.72 0.55 0.51 0.45 0.42 0.54 0.56 0.66 0.68 0.55 0.42 0.34 0.32 0.38 0.41 0.43 0.59
7.14 5.17 3.19 1.75 2.49 2.24 2.24 3.06 3.68 2.41 1.93 1.75 1.41 1.27 1.06 0.69 0.51 0.54 0.74 0.70 0.46 0.33 0.44 0.52 0.47 0.33 0.27 0.32 0.41 0.65 0.44 0.51
6.66 6.41 3.97 2.72 2.47 2.35 1.80 1.70 2.69 3.65 2.49 2.06 1.76 1.04 1.04 0.80 0.83 0.79 0.81 0.72 0.71 0.64 0.54 0.47 0.43 0.32 0.30 0.55 0.50 0.42 0.51 0.42
2.94 3.26 3.02 2.32 2.98 3.04 1.71 1.39 1.17 2.63 2.93 2.17 1.60 1.02 1.03 0.95 0.71 0.77 0.84 0.76 0.84 0.81 0.77 0.61 0.44 0.23 0.20 0.28 0.31 0.69 0.77 0.78
1.25 1.52 1.46 1.49 1.99 1.60 1.49 1.27 1.07 1.35 2.54 2.03 1.32 0.92 0.87 1.14 0.61 0.70 1.07 1.14 0.89 0.73 0.56 0.51 0.39 0.31 0.16 0.15 0.24 0.32 0.41 0.72
1.02 0.81 1.01 1.16 1.41 1.42 1.09 1.10 1.01 0.95 1.79 1.84 1.26 0.90 0.61 0.70 0.37 0.47 1.06 1.05 0.79 0.62 0.39 0.42 0.46 0.47 0.30 0.32 0.31 0.40 0.33 0.60
0.96 0.77 0.80 0.83 0.68 0.80 0.77 0.71 0.93 0.88 0.97 1.56 1.33 0.80 0.42 0.45 0.43 0.47 0.86 0.82 0.89 0.54 0.48 0.56 0.53 0.54 0.46 0.33 0.22 0.47 0.47 0.57
1.00 1.21 0.86 0.88 0.65 0.61 0.60 0.55 0.78 1.04 0.86 1.10 1.56 0.95 0.56 0.60 0.53 0.44 0.62 0.62 0.69 0.60 0.34 0.49 0.63 0.54 0.52 0.35 0.11 0.33 0.47 0.70
1.14 1.62 1.19 1.05 0.62 0.67 0.66 0.70 0.68 0.80 0.93 1.22 1.34 1.04 0.76 0.63 0.66 0.51 0.44 0.47 0.44 0.55 0.53 0.53 0.54 0.55 0.48 0.46 0.27 0.17 0.22 0.51
1.32 1.42 0.99 1.08 0.84 0.95 1.34 0.75 0.51 0.66 0.78 0.92 1.05 1.08 0.87 0.80 0.70 0.55 0.54 0.46 0.31 0.43 0.34 0.44 0.48 0.43 0.36 0.35 0.29 0.16 0.10 0.22
0.89 0.98 0.99 1.33 1.64 1.71 1.23 0.67 0.45 0.69 0.65 0.67 0.87 1.23 0.93 0.81 0.75 0.56 0.64 0.62 0.36 0.35 0.33 0.36 0.40 0.38 0.31 0.35 0.38 0.25 0.15 0.16
0.76 0.84 1.33 1.82 1.57 0.78 0.47 0.51 0.52 0.64 0.56 0.60 0.78 1.40 1.13 0.96 0.96 0.87 0.78 0.61 0.52 0.55 0.48 0.45 0.39 0.30 0.36 0.39 0.30 0.31 0.29 0.29
0.70 0.86 0.73 0.54 0.42 0.41 0.38 0.41 0.33 0.38 0.37 0.55 0.72 1.14 1.32 1.08 1.08 1.04 0.98 0.79 0.58 0.48 0.56 0.70 0.58 0.57 0.77 0.71 0.46 0.43 0.43 0.37
0.41 0.33 0.20 0.20 0.17 0.28 0.34 0.37 0.30 0.25 0.32 0.43 1.00 1.07 1.14 1.10 1.10 0.94 0.87 1.04 1.14 1.06 0.88 0.82 0.63 0.74 0.75 0.77 0.89 0.91 0.41 0.34
0.09 0.15 0.10 0.21 0.23 0.23 0.28 0.41 0.48 0.41 0.38 0.42 0.73 0.79 0.89 0.88 1.09 1.06 1.00 1.18 1.34 1.20 1.08 1.02 1.10 1.13 0.68 0.81 0.85 0.82 0.70 0.47
0.12 0.13 0.19 0.21 0.33 0.14 0.26 0.20 0.22 0.22 0.26 0.28 0.51 0.64 0.71 0.76 0.74 1.09 0.96 1.22 1.47 1.41 1.24 1.05 1.23 1.27 1.20 0.91 0.72 0.63 0.59 0.55
0.09 0.13 0.26 0.27 0.26 0.20 0.36 0.31 0.23 0.20 0.27 0.36 0.47 0.62 0.57 0.77 0.91 0.90 1.17 1.42 1.50 1.55 1.74 1.59 1.38 1.21 1.00 0.84 0.88 0.83 0.64 0.67
0.12 0.13 0.14 0.29 0.35 0.39 0.49 0.64 0.48 0.31 0.24 0.26 0.35 0.54 0.49 0.72 1.09 1.31 1.22 1.27 1.63 1.60 1.75 1.77 1.83 1.73 1.44 1.15 0.80 0.81 0.70 0.71
0.18 0.10 0.16 0.23 0.41 0.55 0.60 1.09 1.26 1.16 0.75 0.44 0.53 0.61 0.48 0.51 0.87 1.35 1.50 1.48 1.60 1.85 1.83 2.00 2.03 1.98 1.87 1.62 1.30 0.97 0.72 0.75
0.39 0.22 0.28 0.31 0.47 0.72 0.74 0.80 1.07 1.78 1.93 1.97 1.57 1.10 0.86 0.79 0.99 1.25 1.48 1.45 1.48 1.64 2.02 2.11 2.25 2.48 2.19 2.05 1.74 1.27 1.07 1.12

GFSFLT2_prec_precacc_201.txt.gz
Total_Precipitation_Accumulation
6.12 3.89 3.36 3.59 2.44 2.37 3.32 3.33 2.82 1.83 1.41 1.21 1.34 1.00 0.86 0.72 0.55 0.51 0.45 0.42 0.54 0.56 0.66 0.68 0.55 0.42 0.34 0.32 0.38 0.41 0.43 0.59
7.14 5.18 3.19 1.76 2.49 2.24 2.24 3.06 3.68 2.41 1.93 1.75 1.41 1.27 1.06 0.69 0.51 0.54 0.74 0.70 0.46 0.33 0.44 0.52 0.47 0.33 0.27 0.32 0.41 0.65 0.44 0.51
6.68 6.42 3.98 2.72 2.47 2.35 1.80 1.70 2.69 3.65 2.49 2.06 1.76 1.04 1.04 0.80 0.83 0.79 0.81 0.72 0.71 0.64 0.54 0.47 0.43 0.32 0.30 0.55 0.50 0.42 0.51 0.42
2.95 3.26 3.02 2.32 2.98 3.04 1.71 1.39 1.17 2.63 2.93 2.17 1.60 1.02 1.03 0.95 0.71 0.77 0.84 0.76 0.84 0.81 0.77 0.61 0.44 0.23 0.20 0.28 0.31 0.69 0.77 0.78
1.26 1.52 1.46 1.49 1.99 1.60 1.49 1.27 1.07 1.35 2.54 2.03 1.32 0.92 0.87 1.14 0.61 0.70 1.07 1.14 0.89 0.73 0.56 0.51 0.39 0.31 0.16 0.15 0.24 0.32 0.41 0.72
1.03 0.81 1.01 1.16 1.41 1.42 1.09 1.10 1.01 0.95 1.79 1.84 1.26 0.90 0.61 0.70 0.37 0.47 1.06 1.05 0.79 0.62 0.39 0.42 0.46 0.47 0.30 0.32 0.31 0.40 0.33 0.60
0.97 0.78 0.80 0.83 0.68 0.80 0.77 0.71 0.93 0.88 0.97 1.56 1.33 0.80 0.42 0.45 0.43 0.47 0.86 0.82 0.89 0.54 0.48 0.56 0.53 0.54 0.46 0.33 0.22 0.47 0.47 0.57
1.01 1.22 0.86 0.88 0.65 0.61 0.60 0.55 0.78 1.04 0.86 1.10 1.56 0.95 0.56 0.60 0.53 0.44 0.62 0.62 0.69 0.60 0.34 0.49 0.63 0.54 0.52 0.35 0.11 0.33 0.47 0.70
1.14 1.62 1.20 1.05 0.62 0.67 0.66 0.70 0.68 0.80 0.93 1.22 1.34 1.04 0.76 0.63 0.66 0.51 0.44 0.47 0.44 0.55 0.53 0.53 0.54 0.55 0.48 0.46 0.27 0.17 0.22 0.51
1.32 1.42 0.99 1.08 0.84 0.95 1.34 0.75 0.51 0.66 0.78 0.92 1.05 1.08 0.87 0.80 0.70 0.55 0.54 0.46 0.31 0.43 0.34 0.44 0.48 0.43 0.36 0.35 0.29 0.16 0.10 0.22
0.89 0.98 0.99 1.34 1.65 1.71 1.23 0.67 0.45 0.69 0.65 0.67 0.87 1.23 0.93 0.81 0.75 0.56 0.64 0.62 0.36 0.35 0.33 0.36 0.40 0.38 0.31 0.35 0.38 0.25 0.15 0.16
0.76 0.84 1.33 1.82 1.58 0.79 0.48 0.51 0.52 0.64 0.56 0.60 0.78 1.40 1.13 0.96 0.96 0.87 0.78 0.61 0.52 0.55 0.48 0.45 0.39 0.30 0.36 0.39 0.30 0.31 0.29 0.29
0.70 0.86 0.73 0.55 0.44 0.43 0.40 0.41 0.33 0.38 0.37 0.55 0.72 1.14 1.32 1.08 1.08 1.04 0.98 0.79 0.58 0.48 0.56 0.70 0.58 0.57 0.77 0.71 0.46 0.43 0.43 0.37
0.41 0.33 0.20 0.20 0.18 0.29 0.34 0.37 0.30 0.25 0.32 0.43 1.00 1.07 1.14 1.10 1.10 0.94 0.87 1.04 1.14 1.06 0.88 0.82 0.63 0.74 0.75 0.77 0.89 0.91 0.41 0.34
0.09 0.15 0.10 0.21 0.24 0.25 0.30 0.42 0.49 0.42 0.38 0.42 0.73 0.79 0.89 0.88 1.09 1.06 1.00 1.18 1.34 1.20 1.08 1.02 1.10 1.13 0.68 0.81 0.85 0.82 0.70 0.47
0.12 0.13 0.19 0.21 0.33 0.15 0.27 0.21 0.22 0.22 0.26 0.28 0.51 0.64 0.71 0.76 0.74 1.09 0.96 1.22 1.47 1.41 1.24 1.05 1.23 1.27 1.20 0.91 0.72 0.63 0.59 0.55
0.09 0.13 0.26 0.27 0.26 0.21 0.36 0.31 0.23 0.20 0.27 0.36 0.47 0.62 0.58 0.77 0.91 0.90 1.17 1.42 1.50 1.55 1.74 1.59 1.38 1.21 1.00 0.84 0.88 0.83 0.64 0.67
0.12 0.13 0.14 0.29 0.35 0.40 0.49 0.64 0.48 0.31 0.24 0.26 0.35 0.54 0.49 0.73 1.09 1.31 1.22 1.27 1.63 1.60 1.75 1.77 1.83 1.73 1.44 1.15 0.80 0.81 0.70 0.71
0.18 0.10 0.16 0.23 0.41 0.55 0.60 1.09 1.26 1.16 0.75 0.44 0.53 0.61 0.48 0.53 0.88 1.35 1.51 1.48 1.60 1.85 1.83 2.00 2.03 1.98 1.87 1.62 1.30 0.97 0.72 0.75
0.39 0.22 0.28 0.31 0.47 0.72 0.74 0.80 1.07 1.78 1.93 1.97 1.58 1.12 0.90 0.83 1.02 1.27 1.51 1.46 1.48 1.64 2.02 2.11 2.25 2.48 2.19 2.05 1.74 1.27 1.07 1.12

GFSFLT2_prec_precacc_204.txt.gz
Total_Precipitation_Accumulation
6.12 3.89 3.36 3.59 2.44 2.37 3.32 3.33 2.82 1.83 1.41 1.21 1.34 1.00 0.86 0.72 0.55 0.51 0.45 0.42 0.54 0.56 0.66 0.68 0.55 0.42 0.34 0.32 0.38 0.41 0.43 0.59
7.14 5.18 3.19 1.76 2.49 2.24 2.24 3.06 3.68 2.41 1.93 1.75 1.41 1.27 1.06 0.69 0.51 0.54 0.74 0.70 0.46 0.33 0.44 0.52 0.47 0.33 0.27 0.32 0.41 0.65 0.44 0.51
6.68 6.42 3.98 2.72 2.47 2.35 1.80 1.70 2.69 3.65 2.49 2.06 1.76 1.04 1.04 0.80 0.83 0.79 0.81 0.72 0.71 0.64 0.54 0.47 0.43 0.32 0.30 0.55 0.50 0.42 0.51 0.42
2.95 3.26 3.02 2.32 2.98 3.04 1.71 1.39 1.17 2.63 2.93 2.17 1.60 1.02 1.03 0.95 0.71 0.77 0.84 0.76 0.84 0.81 0.77 0.61 0.44 0.23 0.20 0.28 0.31 0.69 0.77 0.78
1.26 1.52 1.46 1.49 1.99 1.60 1.49 1.27 1.07 1.35 2.54 2.03 1.32 0.92 0.87 1.14 0.61 0.70 1.07 1.14 0.89 0.73 0.56 0.51 0.39 0.31 0.16 0.15 0.24 0.32 0.41 0.72
1.03 0.81 1.01 1.16 1.41 1.42 1.09 1.10 1.01 0.95 1.79 1.84 1.26 0.90 0.61 0.70 0.37 0.47 1.06 1.05 0.79 0.62 0.39 0.42 0.46 0.47 0.30 0.32 0.31 0.40 0.33 0.60
0.97 0.78 0.80 0.83 0.68 0.80 0.77 0.71 0.93 0.88 0.97 1.56 1.33 0.80 0.42 0.45 0.43 0.47 0.86 0.82 0.89 0.54 0.48 0.56 0.53 0.54 0.46 0.33 0.22 0.47 0.47 0.57
1.01 1.22 0.86 0.88 0.65 0.61 0.60 0.55 0.78 1.04 0.86 1.10 1.56 0.95 0.56 0.60 0.53 0.44 0.62 0.62 0.69 0.60 0.34 0.49 0.63 0.54 0.52 0.35 0.11 0.33 0.47 0.70
1.14 1.62 1.20 1.05 0.62 0.67 0.66 0.70 0.68 0.80 0.93 1.22 1.34 1.04 0.76 0.63 0.66 0.51 0.44 0.47 0.44 0.55 0.53 0.53 0.54 0.55 0.48 0.46 0.27 0.17 0.22 0.51
1.32 1.42 0.99 1.08 0.85 0.95 1.34 0.75 0.51 0.66 0.78 0.92 1.05 1.08 0.87 0.80 0.70 0.55 0.54 0.46 0.31 0.43 0.34 0.44 0.48 0.43 0.36 0.35 0.29 0.16 0.10 0.22
0.89 0.98 0.99 1.34 1.65 1.71 1.23 0.67 0.45 0.69 0.65 0.67 0.87 1.23 0.93 0.81 0.75 0.56 0.64 0.62 0.36 0.35 0.33 0.36 0.40 0.38 0.31 0.35 0.38 0.25 0.15 0.16
0.76 0.84 1.33 1.82 1.58 0.79 0.49 0.51 0.52 0.64 0.56 0.60 0.78 1.40 1.13 0.96 0.96 0.87 0.78 0.61 0.52 0.55 0.48 0.45 0.39 0.30 0.36 0.39 0.30 0.31 0.29 0.29
0.70 0.86 0.73 0.55 0.44 0.43 0.40 0.42 0.33 0.38 0.37 0.55 0.72 1.14 1.32 1.08 1.08 1.04 0.98 0.79 0.58 0.48 0.56 0.70 0.58 0.57 0.77 0.71 0.46 0.43 0.43 0.37
0.41 0.33 0.20 0.20 0.18 0.29 0.34 0.37 0.30 0.25 0.32 0.43 1.00 1.07 1.14 1.10 1.10 0.94 0.87 1.04 1.14 1.06 0.88 0.82 0.63 0.74 0.75 0.77 0.89 0.91 0.41 0.34
0.09 0.15 0.10 0.21 0.24 0.25 0.30 0.42 0.50 0.42 0.38 0.42 0.73 0.79 0.89 0.88 1.09 1.06 1.00 1.18 1.34 1.20 1.08 1.02 1.10 1.13 0.68 0.81 0.85 0.82 0.70 0.47
0.12 0.13 0.19 0.21 0.33 0.15 0.27 0.21 0.22 0.22 0.26 0.28 0.51 0.64 0.71 0.76 0.74 1.09 0.97 1.22 1.47 1.41 1.24 1.05 1.23 1.27 1.20 0.91 0.72 0.63 0.59 0.55
0.09 0.13 0.26 0.27 0.26 0.21 0.36 0.31 0.23 0.20 0.27 0.36 0.47 0.62 0.58 0.77 0.91 0.91 1.17 1.43 1.50 1.55 1.74 1.59 1.38 1.21 1.00 0.84 0.88 0.83 0.64 0.67
0.12 0.13 0.14 0.29 0.35 0.40 0.49 0.64 0.48 0.31 0.24 0.26 0.35 0.54 0.50 0.73 1.09 1.31 1.23 1.27 1.64 1.60 1.75 1.77 1.83 1.73 1.44 1.15 0.80 0.81 0.70 0.71
0.18 0.10 0.16 0.23 0.41 0.55 0.60 1.09 1.26 1.16 0.75 0.44 0.53 0.61 0.48 0.53 0.88 1.36 1.52 1.50 1.61 1.86 1.83 2.00 2.03 1.98 1.87 1.62 1.30 0.97 0.72 0.75
0.39 0.22 0.28 0.31 0.47 0.72 0.74 0.81 1.07 1.79 1.93 1.97 1.58 1.12 0.90 0.83 1.03 1.28 1.53 1.49 1.51 1.64 2.02 2.11 2.25 2.48 2.19 2.05 1.74 1.27 1.07 1.12

GFSFLT2_prec_precacc_207.txt.gz
Total_Precipitation_Accumulation
6.12 3.89 3.36 3.59 2.45 2.37 3.32 3.33 2.82 1.83 1.41 1.21 1.34 1.00 0.86 0.72 0.55 0.51 0.45 0.42 0.54 0.56 0.66 0.68 0.55 0.42 0.34 0.32 0.38 0.41 0.43 0.59
7.14 5.18 3.19 1.76 2.49 2.24 2.24 3.06 3.68 2.41 1.93 1.76 1.41 1.27 1.06 0.69 0.51 0.54 0.74 0.70 0.46 0.33 0.44 0.52 0.47 0.33 0.27 0.32 0.41 0.65 0.44 0.51
6.68 6.42 3.98 2.73 2.48 2.36 1.80 1.70 2.69 3.65 2.49 2.07 1.76 1.04 1.04 0.80 0.83 0.79 0.81 0.72 0.71 0.64 0.54 0.47 0.43 0.32 0.30 0.55 0.50 0.42 0.51 0.42
2.95 3.26 3.02 2.33 2.98 3.04 1.71 1.39 1.17 2.63 2.93 2.17 1.60 1.02 1.03 0.95 0.71 0.77 0.84 0.76 0.84 0.81 0.77 0.61 0.44 0.23 0.20 0.28 0.31 0.69 0.77 0.78
1.26 1.52 1.46 1.49 2.00 1.61 1.50 1.27 1.07 1.35 2.54 2.03 1.32 0.92 0.87 1.14 0.61 0.70 1.07 1.14 0.89 0.73 0.56 0.51 0.39 0.31 0.16 0.15 0.24 0.32 0.41 0.72
1.03 0.81 1.01 1.16 1.41 1.42 1.09 1.10 1.01 0.95 1.79 1.84 1.26 0.90 0.61 0.70 0.37 0.47 1.06 1.05 0.79 0.62 0.39 0.42 0.46 0.47 0.30 0.32 0.31 0.40 0.33 0.60
0.97 0.78 0.80 0.83 0.68 0.80 0.77 0.71 0.93 0.88 0.97 1.56 1.33 0.80 0.42 0.45 0.43 0.47 0.86 0.82 0.89 0.54 0.48 0.56 0.53 0.54 0.46 0.33 0.22 0.47 0.47 0.57
1.01 1.22 0.86 0.88 0.65 0.61 0.60 0.55 0.78 1.04 0.86 1.10 1.56 0.95 0.56 0.60 0.53 0.44 0.62 0.62 0.69 0.60 0.34 0.49 0.63 0.54 0.52 0.35 0.11 0.33 0.47 0.70
1.14 1.62 1.20 1.05 0.62 0.67 0.66 0.70 0.68 0.80 0.93 1.22 1.34 1.04 0.76 0.63 0.66 0.51 0.44 0.47 0.44 0.55 0.53 0.53 0.54 0.55 0.48 0.46 0.27 0.17 0.22 0.51
1.32 1.42 0.99 1.08 0.85 0.95 1.34 0.75 0.51 0.66 0.78 0.92 1.05 1.08 0.87 0.80 0.70 0.55 0.54 0.46 0.31 0.43 0.34 0.44 0.48 0.43 0.36 0.35 0.29 0.16 0.10 0.22
0.89 0.98 0.99 1.34 1.65 1.71 1.23 0.67 0.45 0.69 0.65 0.67 0.87 1.23 0.93 0.81 0.75 0.56 0.64 0.62 0.36 0.35 0.33 0.36 0.40 0.38 0.31 0.35 0.38 0.25 0.15 0.16
0.76 0.84 1.33 1.82 1.58 0.79 0.49 0.51 0.52 0.64 0.56 0.60 0.78 1.40 1.13 0.97 0.96 0.87 0.78 0.61 0.52 0.55 0.48 0.45 0.39 0.30 0.36 0.39 0.30 0.31 0.29 0.29
0.70 0.86 0.73 0.56 0.45 0.44 0.40 0.42 0.33 0.38 0.37 0.55 0.72 1.14 1.32 1.08 1.08 1.04 0.98 0.79 0.58 0.48 0.56 0.70 0.58 0.57 0.77 0.71 0.46 0.43 0.43 0.37
0.41 0.33 0.20 0.20 0.18 0.29 0.34 0.37 0.30 0.25 0.32 0.43 1.00 1.07 1.14 1.10 1.10 0.94 0.87 1.04 1.14 1.06 0.88 0.82 0.63 0.74 0.75 0.77 0.89 0.91 0.41 0.34
0.09 0.15 0.10 0.21 0.24 0.25 0.30 0.43 0.50 0.42 0.38 0.42 0.73 0.79 0.89 0.88 1.09 1.06 1.00 1.18 1.34 1.20 1.08 1.02 1.10 1.13 0.68 0.81 0.85 0.82 0.70 0.47
0.12 0.13 0.19 0.21 0.33 0.15 0.27 0.21 0.22 0.22 0.26 0.28 0.51 0.64 0.71 0.76 0.74 1.09 0.97 1.22 1.47 1.41 1.24 1.05 1.23 1.27 1.20 0.91 0.72 0.63 0.59 0.55
0.09 0.13 0.26 0.27 0.26 0.21 0.36 0.31 0.23 0.20 0.27 0.36 0.47 0.62 0.58 0.77 0.91 0.91 1.17 1.43 1.51 1.56 1.74 1.59 1.38 1.21 1.00 0.84 0.88 0.83 0.64 0.67
0.12 0.13 0.14 0.29 0.35 0.40 0.49 0.64 0.48 0.31 0.24 0.26 0.35 0.54 0.50 0.73 1.09 1.31 1.23 1.27 1.64 1.60 1.76 1.77 1.83 1.73 1.44 1.15 0.80 0.81 0.70 0.71
0.18 0.10 0.16 0.23 0.41 0.55 0.60 1.09 1.26 1.16 0.75 0.44 0.53 0.61 0.48 0.53 0.88 1.36 1.52 1.50 1.61 1.86 1.83 2.00 2.03 1.98 1.87 1.62 1.30 0.97 0.72 0.75
0.39 0.22 0.28 0.31 0.47 0.72 0.74 0.81 1.07 1.79 1.93 1.97 1.58 1.13 0.91 0.84 1.03 1.28 1.53 1.49 1.51 1.65 2.02 2.11 2.25 2.48 2.19 2.05 1.74 1.27 1.07 1.12